When you browse on this site, cookies collect data to enhance your experience and personalize the content and advertising you see.
Visit our Privacy Policy to learn more. By continuing to use the site, you agree to this use of cookies and data.
EN

Hourly Weather Marsa Alam

Today, 13 August, Thursday

Time Temperature Precipitation Wind Pressure Humidity
00:00 +27°C° 0 mm 2 mps 710 mmHg 36%
01:00 +27°C° 0 mm 2 mps 710 mmHg 35%
02:00 +26°C° 0 mm 1 mps 709 mmHg 34%
03:00 +26°C° 0 mm 1 mps 709 mmHg 34%
04:00 +26°C° 0 mm 1 mps 709 mmHg 34%
05:00 +26°C° 0 mm 1 mps 709 mmHg 34%
06:00 +28°C° 0 mm 2 mps 710 mmHg 32%
07:00 +30°C° 0 mm 3 mps 711 mmHg 30%
08:00 +34°C° 0 mm 4 mps 711 mmHg 28%
09:00 +35°C° 0 mm 4 mps 711 mmHg 25%
10:00 +37°C° 0 mm 3 mps 711 mmHg 22%
11:00 +38°C° 0 mm 3 mps 711 mmHg 19%
12:00 +38°C° 0 mm 4 mps 711 mmHg 19%
13:00 +40°C° 0 mm 4 mps 710 mmHg 20%
14:00 +40°C° 0 mm 4 mps 710 mmHg 21%
15:00 +38°C° 0 mm 4 mps 709 mmHg 22%
16:00 +38°C° 0 mm 4 mps 709 mmHg 23%
17:00 +37°C° 0 mm 3 mps 709 mmHg 24%
18:00 +35°C° 0 mm 2 mps 709 mmHg 30%
19:00 +31°C° 0 mm 2 mps 709 mmHg 36%
20:00 +29°C° 0 mm 1 mps 709 mmHg 42%
21:00 +29°C° 0 mm 2 mps 709 mmHg 39%
22:00 +29°C° 0 mm 2 mps 709 mmHg 36%
23:00 +29°C° 0 mm 3 mps 709 mmHg 33%

Tomorrow, 14 August, Friday

Time Temperature Precipitation Wind Pressure Humidity
00:00 +29°C° 0 mm 3 mps 709 mmHg 30%
01:00 +28°C° 0 mm 3 mps 708 mmHg 27%
02:00 +28°C° 0 mm 3 mps 708 mmHg 24%
03:00 +27°C° 0 mm 2 mps 708 mmHg 26%
04:00 +26°C° 0 mm 2 mps 708 mmHg 28%
05:00 +25°C° 0 mm 1 mps 708 mmHg 30%
06:00 +28°C° 0 mm 1 mps 709 mmHg 28%
07:00 +30°C° 0 mm 1 mps 709 mmHg 25%
08:00 +34°C° 0 mm 2 mps 710 mmHg 22%
09:00 +36°C° 0 mm 2 mps 710 mmHg 20%
10:00 +37°C° 0 mm 3 mps 710 mmHg 19%
11:00 +40°C° 0 mm 4 mps 710 mmHg 17%
12:00 +40°C° 0 mm 4 mps 710 mmHg 19%
13:00 +40°C° 0 mm 4 mps 709 mmHg 20%
14:00 +40°C° 0 mm 4 mps 709 mmHg 22%
15:00 +40°C° 0 mm 4 mps 708 mmHg 24%
16:00 +38°C° 0 mm 4 mps 708 mmHg 27%
17:00 +37°C° 0 mm 4 mps 708 mmHg 29%
18:00 +35°C° 0 mm 3 mps 708 mmHg 36%
19:00 +31°C° 0 mm 2 mps 708 mmHg 42%
20:00 +29°C° 0 mm 1 mps 708 mmHg 48%
21:00 +29°C° 0 mm 1 mps 708 mmHg 46%
22:00 +29°C° 0 mm 1 mps 708 mmHg 45%
23:00 +27°C° 0 mm 0 mps 708 mmHg 43%

Day after tomorrow, 15 August, Saturday

Time Temperature Precipitation Wind Pressure Humidity
00:00 +28°C° 0 mm 1 mps 707 mmHg 43%
01:00 +28°C° 0 mm 1 mps 707 mmHg 44%
02:00 +28°C° 0 mm 1 mps 707 mmHg 44%
03:00 +28°C° 0 mm 2 mps 707 mmHg 41%
04:00 +28°C° 0 mm 2 mps 707 mmHg 38%
05:00 +28°C° 0 mm 2 mps 707 mmHg 35%
06:00 +30°C° 0 mm 3 mps 708 mmHg 32%
07:00 +32°C° 0 mm 4 mps 708 mmHg 30%
08:00 +34°C° 0 mm 5 mps 709 mmHg 27%
09:00 +36°C° 0 mm 5 mps 709 mmHg 25%
10:00 +37°C° 0 mm 5 mps 709 mmHg 23%
11:00 +40°C° 0 mm 5 mps 709 mmHg 21%
12:00 +40°C° 0 mm 5 mps 709 mmHg 21%
13:00 +41°C° 0 mm 6 mps 708 mmHg 21%
14:00 +41°C° 0 mm 6 mps 708 mmHg 21%
15:00 +40°C° 0 mm 6 mps 708 mmHg 23%
16:00 +39°C° 0 mm 5 mps 707 mmHg 25%
17:00 +36°C° 0 mm 5 mps 707 mmHg 27%
18:00 +34°C° 0 mm 4 mps 707 mmHg 33%
19:00 +31°C° 0 mm 2 mps 707 mmHg 38%
20:00 +29°C° 0 mm 1 mps 707 mmHg 43%
21:00 +29°C° 0 mm 1 mps 707 mmHg 42%
22:00 +28°C° 0 mm 1 mps 707 mmHg 41%
23:00 +26°C° 0 mm 0 mps 707 mmHg 40%

16 August, Sunday

Time Temperature Precipitation Wind Pressure Humidity
00:00 +25°C° 0 mm 0 mps 707 mmHg 40%
01:00 +25°C° 0 mm 0 mps 706 mmHg 40%
02:00 +24°C° 0 mm 0 mps 706 mmHg 39%
03:00 +26°C° 0 mm 1 mps 706 mmHg 38%
04:00 +26°C° 0 mm 1 mps 706 mmHg 38%
05:00 +26°C° 0 mm 1 mps 706 mmHg 37%
06:00 +29°C° 0 mm 2 mps 707 mmHg 32%
07:00 +33°C° 0 mm 3 mps 708 mmHg 28%
08:00 +35°C° 0 mm 3 mps 709 mmHg 23%
09:00 +37°C° 0 mm 3 mps 709 mmHg 21%
10:00 +39°C° 0 mm 3 mps 709 mmHg 19%
11:00 +40°C° 0 mm 3 mps 710 mmHg 17%
12:00 +41°C° 0 mm 4 mps 709 mmHg 18%
13:00 +42°C° 0 mm 4 mps 709 mmHg 19%
14:00 +42°C° 0 mm 5 mps 709 mmHg 20%
15:00 +41°C° 0 mm 5 mps 708 mmHg 22%
16:00 +40°C° 0 mm 4 mps 708 mmHg 24%
17:00 +38°C° 0 mm 4 mps 708 mmHg 26%
18:00 +35°C° 0 mm 3 mps 708 mmHg 32%
19:00 +32°C° 0 mm 2 mps 708 mmHg 39%
20:00 +30°C° 0 mm 1 mps 708 mmHg 45%
21:00 +30°C° 0 mm 1 mps 708 mmHg 42%
22:00 +29°C° 0 mm 1 mps 708 mmHg 38%
23:00 +29°C° 0 mm 1 mps 708 mmHg 35%

17 August, Monday

Time Temperature Precipitation Wind Pressure Humidity
00:00 +29°C° 0 mm 1 mps 708 mmHg 32%
01:00 +29°C° 0 mm 1 mps 708 mmHg 29%
02:00 +29°C° 0 mm 1 mps 708 mmHg 27%
03:00 +28°C° 0 mm 1 mps 708 mmHg 30%
04:00 +28°C° 0 mm 1 mps 708 mmHg 34%
05:00 +27°C° 0 mm 1 mps 708 mmHg 37%
06:00 +30°C° 0 mm 2 mps 708 mmHg 32%
07:00 +33°C° 0 mm 3 mps 709 mmHg 26%
08:00 +36°C° 0 mm 5 mps 710 mmHg 21%
09:00 +37°C° 0 mm 4 mps 710 mmHg 20%
10:00 +40°C° 0 mm 4 mps 710 mmHg 19%
11:00 +41°C° 0 mm 4 mps 710 mmHg 18%
12:00 +42°C° 0 mm 5 mps 710 mmHg 18%
13:00 +42°C° 0 mm 5 mps 709 mmHg 18%
14:00 +43°C° 0 mm 5 mps 709 mmHg 18%
15:00 +42°C° 0 mm 5 mps 708 mmHg 19%
16:00 +41°C° 0 mm 5 mps 708 mmHg 19%
17:00 +40°C° 0 mm 4 mps 708 mmHg 20%
18:00 +36°C° 0 mm 3 mps 708 mmHg 26%
19:00 +34°C° 0 mm 2 mps 708 mmHg 31%
20:00 +30°C° 0 mm 1 mps 708 mmHg 37%
21:00 +30°C° 0 mm 1 mps 708 mmHg 33%
22:00 +30°C° 0 mm 1 mps 708 mmHg 29%
23:00 +30°C° 0 mm 1 mps 709 mmHg 25%

18 August, Tuesday

Time Temperature Precipitation Wind Pressure Humidity
00:00 +30°C° 0 mm 1 mps 708 mmHg 25%
01:00 +29°C° 0 mm 1 mps 708 mmHg 25%
02:00 +29°C° 0 mm 1 mps 708 mmHg 25%
03:00 +29°C° 0 mm 2 mps 708 mmHg 25%
04:00 +29°C° 0 mm 2 mps 708 mmHg 25%
05:00 +29°C° 0 mm 2 mps 708 mmHg 25%
06:00 +31°C° 0 mm 3 mps 709 mmHg 23%
07:00 +34°C° 0 mm 4 mps 710 mmHg 22%
08:00 +36°C° 0 mm 4 mps 710 mmHg 21%
09:00 +38°C° 0 mm 4 mps 710 mmHg 19%
10:00 +40°C° 0 mm 4 mps 710 mmHg 17%
11:00 +42°C° 0 mm 4 mps 710 mmHg 15%
12:00 +42°C° 0 mm 5 mps 710 mmHg 16%
13:00 +43°C° 0 mm 5 mps 709 mmHg 16%
14:00 +43°C° 0 mm 5 mps 709 mmHg 17%
15:00 +42°C° 0 mm 5 mps 709 mmHg 18%
16:00 +41°C° 0 mm 4 mps 708 mmHg 20%
17:00 +40°C° 0 mm 4 mps 708 mmHg 21%
18:00 +36°C° 0 mm 3 mps 708 mmHg 25%
19:00 +34°C° 0 mm 2 mps 708 mmHg 30%
20:00 +30°C° 0 mm 1 mps 708 mmHg 34%
21:00 +30°C° 0 mm 1 mps 708 mmHg 33%
22:00 +30°C° 0 mm 1 mps 708 mmHg 32%
23:00 +29°C° 0 mm 1 mps 708 mmHg 32%
Show more